Weather Service Report


721 
ASUS43 KTOP 020008
RWRKS 

WEATHER ROUNDUP FOR KANSAS
NATIONAL WEATHER SERVICE GOODLAND KS
700 PM CDT FRI JUL 01 2016

NOTE:  "FAIR" INDICATES FEW OR NO CLOUDS BELOW 12,000 FEET WITH NO
SIGNIFICANT WEATHER AND/OR OBSTRUCTIONS TO VISIBILITY.

KSZ001>006-013>018-027>032-041>047-020100-
NORTHWEST KANSAS
  
CITY           SKY/WX    TMP DP  RH WIND       PRES   REMARKS
GOODLAND       CLOUDY    73  62  68 S16       30.03F                  
6HR MIN TEMP:  68; 6HR MAX TEMP:  76;                                

HAYS           CLOUDY    77  63  61 E14       30.01F                  
HILL CITY      CLOUDY    77  65  66 SE17G23   30.02F                  
6HR MIN TEMP:  75; 6HR MAX TEMP:  83; 6HR PCP: TRACE;                

RUSSELL        PTSUNNY   75  65  70 SE17      30.02F                  
6HR MIN TEMP:  73; 6HR MAX TEMP:  79;                                

$$

KSZ061>065-074>080-084>089-020100-
SOUTHWEST KANSAS
  
CITY           SKY/WX    TMP DP  RH WIND       PRES   REMARKS
DODGE CITY     PTSUNNY   78  67  68 SE13      30.03F                  
6HR MIN TEMP:  73; 6HR MAX TEMP:  80;                                

ELKHART          N/A     73  65  76 SE12        N/A                   
GARDEN CITY    CLOUDY    76  66  71 SE12      30.02F                  
6HR MIN TEMP:  74; 6HR MAX TEMP:  78;                                

GREAT BEND     PTSUNNY   79  64  61 E12       30.02S                  
LIBERAL        CLOUDY    79  68  69 E15       30.01F                  
PRATT          CLOUDY    76  63  63 S12       30.02F                  
6HR MIN TEMP:  74; 6HR MAX TEMP:  80;                                

$$

KSZ066>073-081>083-090>101-020100-
SOUTHEAST KANSAS
  
CITY           SKY/WX    TMP DP  RH WIND       PRES   REMARKS
CHANUTE        CLOUDY    82  63  52 E10       30.04F                  
6HR MIN TEMP:  81; 6HR MAX TEMP:  85;                                

COFFEYVILLE    CLOUDY    82  67  60 E3        30.02F                  
6HR MIN TEMP:  81; 6HR MAX TEMP:  85; 6HR PCP: TRACE;                

HUTCHINSON     PTSUNNY   79  66  64 SE12      30.03S                  
6HR MIN TEMP:  75; 6HR MAX TEMP:  82;                                

MEDICINE LODGE   N/A     78  67  68 SE10G18   30.01F                  
PARSONS        CLOUDY    82  67  60 CALM      30.04F                  
6HR MIN TEMP:  81; 6HR MAX TEMP:  85;                                

WICHITA INTL   PTSUNNY   76  72  87 E7        30.02F                  
6HR MIN TEMP:  72; 6HR MAX TEMP:  83; 6HR PCP:  0.32;                

WICHITA JABRA  LGT RAIN  73  70  90 SE10      30.03F                  
6HR MIN TEMP:  73; 6HR MAX TEMP:  81; 6HR PCP: TRACE;                

WICHITA MCCONL CLOUDY    73  72  94 SE9       30.03F                  
WINFIELD       CLOUDY    76  67  73 E6        30.03F                  
6HR MIN TEMP:  75; 6HR MAX TEMP:  82; 6HR PCP: TRACE;                

$$

KSZ007>012-019>026-033>040-048>060-102>105-020100-
NORTHEAST KANSAS
  
CITY           SKY/WX    TMP DP  RH WIND       PRES   REMARKS
CONCORDIA      CLOUDY    78  53  41 E9        30.04F                  
6HR MIN TEMP:  76; 6HR MAX TEMP:  82;                                

EMPORIA        CLOUDY    77  62  59 E9        30.05F                  
6HR MIN TEMP:  74; 6HR MAX TEMP:  82; 6HR PCP: TRACE;                

LAWRENCE       MOSUNNY   81  57  43 E8        30.06S                  
6HR MIN TEMP:  79; 6HR MAX TEMP:  84;                                

MANHATTAN      CLOUDY    81  59  47 E12       30.04F                  
6HR MIN TEMP:  80; 6HR MAX TEMP:  83; 6HR PCP: TRACE;                

MARYSVILLE     CLOUDY    77  52  41 E7        30.05F                  
OLATHE IND     CLOUDY    77  59  53 E12       30.08S                  
6HR MIN TEMP:  77; 6HR MAX TEMP:  84;                                

OLATHE EXE     CLOUDY    75  57  53 SE8       30.08R                  
6HR MIN TEMP:  75; 6HR MAX TEMP:  82; 6HR PCP: TRACE;                

SALINA         CLOUDY    80  62  54 SE14      30.03F                  
6HR MIN TEMP:  72; 6HR MAX TEMP:  82; 6HR PCP: TRACE;                

TOPEKA BILLARD CLOUDY    81  57  43 E6        30.05F                  
6HR MIN TEMP:  79; 6HR MAX TEMP:  83;                                

TOPEKA FORBES  CLOUDY    81  59  47 E9        30.06S                  
6HR MIN TEMP:  80; 6HR MAX TEMP:  84;                                

$$
  

Return to Home page


Western Regional Climate Center, wrcc@dri.edu